Location: ????????
(42.0488°N, 44.0407°E)
Time: 04:42:18
(UTC+00:00)

H-2A R/B - Pass Details

Date: 07 June 2020
Orbit: 578 x 655 km, 98.5° (Epoch: 03 July)

Event Time Altitude Azimuth Distance (km) Brightness Sun altitude
Rises 00:01:37 0° 156° (SSE) 2,913 5.3 -13.1°
Reaches altitude 10° 00:03:48 10° 153° (SSE) 2,020 4.5 -12.9°
Maximum altitude 00:08:09 63° 73° (ENE) 724 2.6 -12.3°
Drops below altitude 10° 00:12:37 10° 353° (N) 2,067 5.3 -11.7°
Sets 00:14:52 0° 350° (N) 2,988 6.1 -11.5°
